Freeport, Bahamas

2:15 PM EDT on April 28, 2017 (GMT -0400)
Grand Bahama International

Weather History for MYGF - July, 2013

Change the Weather History Date:

Monday, July 15, 2013

  Actual Average Record
Temperature  
Mean Temperature 79 °F -  
Max Temperature 85 °F 87 °F 91 °F (1998)
Min Temperature 73 °F 77 °F 73 °F (2003)
Cooling Degree Days 14    
Growing Degree Days 29 (Base 50)    
Moisture  
Dew Point 77 °F    
Average Humidity 91    
Maximum Humidity 100    
Minimum Humidity 79    
Precipitation  
Precipitation 2.99 in - - ()
Sea Level Pressure  
Sea Level Pressure 30.06 in    
Wind  
Wind Speed 3 mph ()    
Max Wind Speed 11 mph    
Max Gust Speed -    
Visibility 6.7 miles    
Events Rain , Thunderstorm , Tornado    
Averages and records for this station are not official NWS values.
T = Trace of Precipitation, MM = Missing Value Source: Averaged Metar Reports

Daily Weather History Graph

Daily Weather History Graph

Search for Another Location

Airport or City:

Trip Planner

Search our weather history database for the weather conditions in past years. The results will help you decide how hot, cold, wet, or windy it might be!

Date:

Astronomy

Jul. 15, 2013 Rise Set
Actual Time 6:31 AM EDT 8:10 PM EDT
Civil Twilight 6:05 AM EDT 8:35 PM EDT
Nautical Twilight 5:34 AM EDT 9:06 PM EDT
Astronomical Twilight 5:02 AM EDT 9:38 PM EDT
Moon 1:02 PM EDT (7/15) 12:04 AM EDT (7/15)
Length of Visible Light 14h 30m
Length of Day
13h 38m
Waxing Crescent, 45% of the Moon is Illuminated
Jul 15
Waxing Crescent
Jul 15
First Quarter
Jul 22
Full
Jul 29
Last Quarter
Aug 6
New

Hourly Weather History & Observations

Time (EDT) Temp. Heat Index Dew Point Humidity Pressure Visibility Wind Dir Wind Speed Gust Speed Precip Events Conditions
6:00 AM 73.4 °F - 71.6 °F 94% 30.04 in 6.2 mi Calm Calm - N/A   Scattered Clouds
7:00 AM 75.2 °F - 75.2 °F 100% 30.03 in 6.2 mi Calm Calm - N/A   Partly Cloudy
8:00 AM 78 °F - 76 °F 92% 30.05 in 12 mi ENE 6.7 mph - -   Partly Cloudy
8:00 AM 78.8 °F - 77.0 °F 94% 30.05 in 6.2 mi ENE 3.5 mph - N/A   Partly Cloudy
9:00 AM 82.4 °F 89.5 °F 75.2 °F 79% 30.06 in 6.2 mi ENE 3.5 mph - N/A   Partly Cloudy
10:00 AM 84.2 °F 98.3 °F 80.6 °F 89% 30.06 in 6.2 mi SSE 3.5 mph - N/A   Mostly Cloudy
10:38 AM 84.2 °F 98.3 °F 80.6 °F 89% 30.06 in 6.2 mi ESE 4.6 mph - N/A Tornado Funnel Cloud
11:00 AM 85 °F - 79 °F 79% 30.06 in 9 mi ESE 11.2 mph - - Tornado Funnel Cloud
11:00 AM 84.2 °F 96.1 °F 78.8 °F 84% 30.06 in 6.2 mi ESE 5.8 mph - N/A   Mostly Cloudy
11:23 AM 84.2 °F 96.1 °F 78.8 °F 84% 30.07 in 6.2 mi SW 6.9 mph - N/A Thunderstorm Thunderstorm
12:00 PM 75.2 °F - 71.6 °F 89% 30.09 in 1.5 mi East 5.8 mph - N/A Rain , Thunderstorm Heavy Thunderstorms and Rain
12:11 PM 77.0 °F - 77.0 °F 100% 30.10 in 6.2 mi ENE 3.5 mph - N/A Rain , Thunderstorm Light Thunderstorms and Rain
1:00 PM 77.0 °F - 75.2 °F 94% 30.08 in 6.2 mi North 3.5 mph - N/A Rain Light Rain
2:00 PM 77 °F - 77 °F 100% 30.07 in 12 mi NNE 4.6 mph - - Rain Light Rain
2:00 PM 77.0 °F - 77.0 °F 100% 30.07 in 6.2 mi NNE 4.6 mph - N/A   Mostly Cloudy
3:00 PM 82.4 °F 94.0 °F 80.6 °F 94% 30.06 in 6.2 mi East 3.5 mph - N/A Thunderstorm Thunderstorm
4:00 PM 80.6 °F 88.1 °F 78.8 °F 94% 30.06 in 6.2 mi East 3.5 mph - N/A   Mostly Cloudy
5:00 PM 80.6 °F 88.1 °F 78.8 °F 94% 30.05 in 6.2 mi East 3.5 mph - N/A   Mostly Cloudy
6:00 PM 78.8 °F - 77.0 °F 94% 30.04 in 6.2 mi East 3.5 mph - N/A   Mostly Cloudy
7:00 PM 78.8 °F - 77.0 °F 94% 30.05 in 6.2 mi East 3.5 mph - N/A   Mostly Cloudy
8:00 PM 78.8 °F - 73.4 °F 83% 30.06 in 6.2 mi East 3.5 mph - N/A   Mostly Cloudy